Location: Stara Lesna
(49.1528°N, 20.2911°E)
Time: 18:20:57
(UTC+02:00)

IKONOS-2 - Pass Details

Date: 13 July 2020
Orbit: 600 x 611 km, 98.1° (Epoch: 10 August)

Event Time Altitude Azimuth Distance (km) Brightness Sun altitude
Exits shadow 02:35:07 22° 176° (S) 1,347 5.8 -14.9°
Maximum altitude 02:37:50 70° 257° (WSW) 644 4.5 -14.7°
Drops below altitude 10° 02:42:04 10° 342° (NNW) 1,957 7.8 -14.4°
Sets 02:44:16 0° 345° (NNW) 2,864 8.7 -14.2°
